NKS2223 KLAS-KIAH

Flight info

Callsign NKS2223
Flight time N/A
Altitude 39000
Route KLAS/26R N0427F390 NIITZ4 SSKEE GUP CNX SJT DIESL TTORO3 KIAH/26R
Aircraft A20N/M-SDE2E3FGHIJ1RWXY/LB1

Departure

Time 2026-05-04 18:11
Airport Harry Reid International Airport (KLAS)

Arrival

Time N/A
Airport George Bush Intercontinental Airport (KIAH)
Time Latitude Longitude Altitude Speed Heading
2026-05-04 17:59 36.08320 -115.13511 2078 ft 0 kts 240°
2026-05-04 18:02 36.08328 -115.13492 2076 ft 9 kts 240°
2026-05-04 18:03 36.08359 -115.13426 2074 ft 4 kts 240°
2026-05-04 18:03 36.08363 -115.13419 2073 ft 6 kts 237°
2026-05-04 18:03 36.08385 -115.13409 2073 ft 0 kts 130°
2026-05-04 18:04 36.08367 -115.13388 2073 ft 5 kts 144°
2026-05-04 18:05 36.08322 -115.13377 2073 ft 8 kts 179°
2026-05-04 18:05 36.08259 -115.13376 2075 ft 10 kts 179°
2026-05-04 18:05 36.08183 -115.13376 2077 ft 12 kts 180°
2026-05-04 18:05 36.08094 -115.13377 2076 ft 14 kts 179°
2026-05-04 18:06 36.07866 -115.13377 2081 ft 15 kts 182°
2026-05-04 18:06 36.07826 -115.13443 2084 ft 9 kts 266°
2026-05-04 18:06 36.07836 -115.13518 2086 ft 8 kts 309°
2026-05-04 18:07 36.07880 -115.13494 2086 ft 10 kts 38°
2026-05-04 18:07 36.07909 -115.13435 2083 ft 15 kts 85°
2026-05-04 18:07 36.07868 -115.13377 2081 ft 6 kts 168°
2026-05-04 18:07 36.07828 -115.13287 2073 ft 16 kts 89°
2026-05-04 18:08 36.07828 -115.13175 2068 ft 23 kts 90°
2026-05-04 18:08 36.07823 -115.12951 2059 ft 30 kts 88°
2026-05-04 18:08 36.07827 -115.12664 2046 ft 37 kts 87°
2026-05-04 18:08 36.07827 -115.12462 2044 ft 8 kts 92°
2026-05-04 18:09 36.07827 -115.12449 2037 ft 0 kts 91°
2026-05-04 18:09 36.07827 -115.12362 2034 ft 13 kts 89°
2026-05-04 18:10 36.07799 -115.12237 2029 ft 17 kts 112°
2026-05-04 18:10 36.07731 -115.12142 2029 ft 13 kts 154°
2026-05-04 18:10 36.07649 -115.12156 2033 ft 13 kts 237°
2026-05-04 18:10 36.07644 -115.12252 2032 ft 13 kts 268°
2026-05-04 18:11 36.07638 -115.12637 2047 ft 90 kts 270°
2026-05-04 18:11 36.07637 -115.13709 2094 ft 159 kts 269°
2026-05-04 18:11 36.07637 -115.15157 2901 ft 164 kts 265°
2026-05-04 18:11 36.07635 -115.16555 3909 ft 162 kts 264°
2026-05-04 18:12 36.07626 -115.18013 4446 ft 182 kts 265°
2026-05-04 18:12 36.07613 -115.19677 5176 ft 204 kts 266°
2026-05-04 18:12 36.07497 -115.21397 5692 ft 199 kts 257°
2026-05-04 18:12 36.07246 -115.23144 5689 ft 218 kts 256°
2026-05-04 18:13 36.06913 -115.24931 5622 ft 215 kts 243°
2026-05-04 18:13 36.05927 -115.26335 5661 ft 224 kts 213°
2026-05-04 18:13 36.02711 -115.27816 6899 ft 260 kts 200°
2026-05-04 18:14 36.00992 -115.28512 8291 ft 261 kts 193°
2026-05-04 18:14 35.99167 -115.28520 9627 ft 268 kts 168°
2026-05-04 18:14 35.97471 -115.27537 10692 ft 285 kts 147°
2026-05-04 18:15 35.94216 -115.24010 11905 ft 336 kts 141°
2026-05-04 18:15 35.90939 -115.19695 13887 ft 356 kts 129°
2026-05-04 18:15 35.89594 -115.17067 14753 ft 367 kts 124°
2026-05-04 18:16 35.88286 -115.14313 15616 ft 376 kts 124°
2026-05-04 18:16 35.87222 -115.11300 16478 ft 392 kts 110°
2026-05-04 18:16 35.86779 -115.07924 17314 ft 409 kts 95°
2026-05-04 18:17 35.87144 -115.00709 18804 ft 430 kts 89°
2026-05-04 18:17 35.87363 -114.97060 19531 ft 436 kts 89°
2026-05-04 18:17 35.87791 -114.89484 20955 ft 450 kts 89°
2026-05-04 18:18 35.88001 -114.85602 21676 ft 458 kts 89°
2026-05-04 18:18 35.88212 -114.81649 22383 ft 465 kts 90°
2026-05-04 18:18 35.88425 -114.77620 23087 ft 472 kts 90°
2026-05-04 18:18 35.88639 -114.73547 23729 ft 479 kts 90°
2026-05-04 18:19 35.89078 -114.65084 24189 ft 511 kts 90°
2026-05-04 18:19 35.89304 -114.60705 24340 ft 526 kts 90°
2026-05-04 18:19 35.89538 -114.56139 24466 ft 540 kts 90°
2026-05-04 18:20 35.89715 -114.51475 24785 ft 545 kts 94°
2026-05-04 18:20 35.89684 -114.46786 25229 ft 549 kts 95°
2026-05-04 18:20 35.89661 -114.42038 25467 ft 558 kts 95°
2026-05-04 18:20 35.89640 -114.37236 25903 ft 559 kts 95°
2026-05-04 18:21 35.89618 -114.32429 26449 ft 559 kts 95°
2026-05-04 18:21 35.89593 -114.27617 26880 ft 562 kts 96°
2026-05-04 18:21 35.89563 -114.22792 27392 ft 562 kts 96°
2026-05-04 18:21 35.89529 -114.18021 27882 ft 562 kts 96°
2026-05-04 18:22 35.89494 -114.13197 28387 ft 563 kts 96°
2026-05-04 18:22 35.89457 -114.08367 28895 ft 563 kts 97°
2026-05-04 18:22 35.89417 -114.03533 29371 ft 564 kts 97°
2026-05-04 18:22 35.89375 -113.98680 29875 ft 565 kts 97°
2026-05-04 18:23 35.89331 -113.93827 30333 ft 566 kts 97°
2026-05-04 18:23 35.89285 -113.88968 30805 ft 566 kts 97°
2026-05-04 18:23 35.89237 -113.84112 31272 ft 567 kts 98°
2026-05-04 18:23 35.89187 -113.79235 31756 ft 568 kts 98°
2026-05-04 18:24 35.89135 -113.74350 32176 ft 569 kts 98°
2026-05-04 18:24 35.89081 -113.69456 32645 ft 570 kts 98°
2026-05-04 18:24 35.89026 -113.64635 33102 ft 570 kts 98°
2026-05-04 18:24 35.88968 -113.59733 33483 ft 572 kts 98°
2026-05-04 18:25 35.88877 -113.54809 33858 ft 572 kts 101°
2026-05-04 18:25 35.88416 -113.49984 34269 ft 561 kts 109°
2026-05-04 18:25 35.87726 -113.45261 34607 ft 562 kts 109°
2026-05-04 18:25 35.87037 -113.40496 34973 ft 563 kts 109°
2026-05-04 18:26 35.86355 -113.35745 35348 ft 562 kts 109°
2026-05-04 18:26 35.85674 -113.30997 35762 ft 561 kts 109°
2026-05-04 18:26 35.84983 -113.26243 36060 ft 564 kts 108°
2026-05-04 18:26 35.84291 -113.21483 36457 ft 564 kts 108°
2026-05-04 18:27 35.83605 -113.16770 36817 ft 564 kts 108°
2026-05-04 18:27 35.82912 -113.12016 37194 ft 564 kts 108°
2026-05-04 18:27 35.82217 -113.07269 37568 ft 563 kts 108°
2026-05-04 18:27 35.81519 -113.02518 37915 ft 564 kts 107°
2026-05-04 18:28 35.80818 -112.97763 38239 ft 564 kts 107°
2026-05-04 18:28 35.80116 -112.93009 38557 ft 564 kts 107°
2026-05-04 18:28 35.79416 -112.88275 38789 ft 562 kts 107°
2026-05-04 18:28 35.78715 -112.83542 38845 ft 559 kts 107°
2026-05-04 18:29 35.77309 -112.74116 38855 ft 560 kts 107°
2026-05-04 18:29 35.75905 -112.64744 38855 ft 560 kts 107°
2026-05-04 18:30 35.73779 -112.50576 38856 ft 560 kts 107°
2026-05-04 18:31 35.72353 -112.41135 38921 ft 560 kts 107°
2026-05-04 18:31 35.70928 -112.31759 38982 ft 560 kts 107°
2026-05-04 18:32 35.69491 -112.22351 39025 ft 559 kts 107°
2026-05-04 18:32 35.68043 -112.12928 39039 ft 559 kts 107°
2026-05-04 18:33 35.66594 -112.03547 39028 ft 558 kts 107°
2026-05-04 18:33 35.65135 -111.94155 38987 ft 558 kts 107°
2026-05-04 18:34 35.63678 -111.84799 38936 ft 557 kts 106°
2026-05-04 18:34 35.62996 -111.75297 38870 ft 563 kts 97°
2026-05-04 18:35 35.62606 -111.65670 38849 ft 563 kts 97°
2026-05-04 18:35 35.62202 -111.56101 38839 ft 563 kts 97°
2026-05-04 18:36 35.61785 -111.46493 38839 ft 562 kts 97°
2026-05-04 18:36 35.61360 -111.36899 38839 ft 562 kts 97°
2026-05-04 18:37 35.60928 -111.27320 38834 ft 561 kts 97°
2026-05-04 18:37 35.60487 -111.17734 38840 ft 562 kts 97°
2026-05-04 18:38 35.60039 -111.08139 38855 ft 562 kts 97°
2026-05-04 18:38 35.59586 -110.98608 38864 ft 562 kts 97°
2026-05-04 18:39 35.59121 -110.88987 38877 ft 563 kts 97°
2026-05-04 18:39 35.58650 -110.79388 38876 ft 563 kts 98°
2026-05-04 18:40 35.58170 -110.69775 38880 ft 564 kts 98°
2026-05-04 18:40 35.57685 -110.60212 38882 ft 564 kts 98°
2026-05-04 18:41 35.57190 -110.50594 38882 ft 564 kts 98°
2026-05-04 18:41 35.56687 -110.40964 38882 ft 565 kts 98°
2026-05-04 18:42 35.56175 -110.31325 38880 ft 565 kts 98°
2026-05-04 18:42 35.55655 -110.21685 38882 ft 566 kts 97°
2026-05-04 18:43 35.55127 -110.12044 38888 ft 566 kts 98°
2026-05-04 18:43 35.54593 -110.02405 38877 ft 565 kts 97°
2026-05-04 18:44 35.54050 -109.92770 38873 ft 565 kts 97°
2026-05-04 18:44 35.53500 -109.83140 38868 ft 565 kts 98°
2026-05-04 18:45 35.52942 -109.73515 38866 ft 566 kts 97°
2026-05-04 18:45 35.52378 -109.63917 38863 ft 566 kts 97°
2026-05-04 18:46 35.51804 -109.54280 38861 ft 566 kts 97°
2026-05-04 18:46 35.51223 -109.44639 38879 ft 566 kts 97°
2026-05-04 18:47 35.50633 -109.34992 38938 ft 567 kts 97°
2026-05-04 18:47 35.50039 -109.25389 38991 ft 567 kts 98°
2026-05-04 18:48 35.49433 -109.15734 39025 ft 566 kts 97°
2026-05-04 18:48 35.48819 -109.06087 39033 ft 567 kts 97°
2026-05-04 18:49 35.48203 -108.96495 39044 ft 567 kts 97°
2026-05-04 18:49 35.47057 -108.86974 39111 ft 561 kts 109°
2026-05-04 18:50 35.44547 -108.78015 39112 ft 552 kts 120°
2026-05-04 18:50 35.41640 -108.69283 39069 ft 552 kts 119°
2026-05-04 18:51 35.38768 -108.60602 38982 ft 553 kts 119°
2026-05-04 18:51 35.32434 -108.41597 38800 ft 553 kts 119°
2026-05-04 18:52 35.20685 -108.06682 39069 ft 556 kts 119°
2026-05-04 18:52 35.08819 -107.71797 39027 ft 556 kts 119°
2026-05-04 18:52 35.02855 -107.54413 38846 ft 555 kts 119°
2026-05-04 18:53 34.96842 -107.36988 38820 ft 556 kts 119°
2026-05-04 18:53 34.84775 -107.02302 38816 ft 554 kts 119°
2026-05-04 18:54 34.72643 -106.67823 38872 ft 553 kts 119°
2026-05-04 18:54 34.60491 -106.33655 38880 ft 554 kts 119°
2026-05-04 18:55 34.48148 -105.99324 38875 ft 554 kts 119°
2026-05-04 18:55 34.29899 -105.55125 38852 ft 546 kts 129°
2026-05-04 18:56 34.13385 -105.24346 38805 ft 545 kts 129°
2026-05-04 18:56 33.96726 -104.93606 38776 ft 548 kts 129°
2026-05-04 18:57 33.79972 -104.62948 38748 ft 548 kts 129°
2026-05-04 18:57 33.63138 -104.32404 38741 ft 548 kts 129°
2026-05-04 18:58 33.46280 -104.02071 38782 ft 551 kts 129°
2026-05-04 18:58 33.29196 -103.71580 38815 ft 551 kts 129°
2026-05-04 18:59 33.12059 -103.41251 38806 ft 550 kts 129°
2026-05-04 18:59 32.94877 -103.11089 38858 ft 549 kts 129°
2026-05-04 19:00 32.77725 -102.81221 38934 ft 550 kts 129°
2026-05-04 19:00 32.60360 -102.51224 38952 ft 551 kts 130°
2026-05-04 19:01 32.51657 -102.36279 38846 ft 550 kts 130°
2026-05-04 19:01 32.42904 -102.21308 38801 ft 550 kts 130°
2026-05-04 19:01 32.25445 -101.91625 38845 ft 550 kts 130°
2026-05-04 19:02 32.07874 -101.61981 38895 ft 550 kts 130°
2026-05-04 19:02 31.90375 -101.32687 38832 ft 549 kts 130°
2026-05-04 19:03 31.72754 -101.03412 38835 ft 547 kts 130°
2026-05-04 19:03 31.55116 -100.74331 38875 ft 547 kts 130°
2026-05-04 19:04 31.37789 -100.44963 38925 ft 554 kts 117°
2026-05-04 19:04 31.34421 -100.33136 38914 ft 557 kts 107°
2026-05-04 19:05 31.32268 -100.24436 38903 ft 557 kts 107°
2026-05-04 19:05 31.30099 -100.15732 38721 ft 558 kts 107°
2026-05-04 19:06 31.27918 -100.07019 38870 ft 559 kts 107°
2026-05-04 19:06 31.25742 -99.98353 39007 ft 558 kts 107°
2026-05-04 19:07 31.23548 -99.89642 39089 ft 558 kts 107°
2026-05-04 19:07 31.22451 -99.85296 38953 ft 558 kts 107°
2026-05-04 19:07 31.21350 -99.80941 38816 ft 558 kts 107°
2026-05-04 19:08 31.20248 -99.76590 38629 ft 560 kts 107°